Station Historical Data
Daily Summary for January 03, 2018 Units:  Metric    English   Both
« Previous Day
Next Day »
Daily Weekly Monthly Yearly Custom
  High: Low: Average:
Temperature: -5.2 °C -13.6 °C -8.9 °C
Dew Point: -9.1 °C -17.7 °C -14.1 °C
Humidity: 84% 50% 67%
Wind Speed: 24.1km/h 1.6km/h 11.6km/h
Wind Gust: 37km/h - -
Wind- - SSW
Pressure: 1023.6 hPa 1015.8 hPa -
Precipitation: 0 mm    
Historical Graphs
 
 
Tabular Data for January 03, 2018
Time Temperature Dew Point Pressure Wind Wind Speed Wind Gust Humidity Rainfall Rate (Hourly)
00:04 -11.1 °C -14.1 °C 1023.6 hPa SSW 14.5 km/h 33.8 km/h 78% 0 mm
00:09 -11.1 °C -14.1 °C 1023.2 hPa South 14.5 km/h 24.1 km/h 79% 0 mm
00:14 -11.2 °C -14.1 °C 1023.2 hPa SW 16.1 km/h 29 km/h 79% 0 mm
00:19 -11.2 °C -14.2 °C 1023.2 hPa SSW 14.5 km/h 35.4 km/h 78% 0 mm
00:24 -11.2 °C -14.3 °C 1023.2 hPa SW 16.1 km/h 32.2 km/h 78% 0 mm
00:29 -11.2 °C -14.2 °C 1023.2 hPa SSW 14.5 km/h 27.4 km/h 79% 0 mm
00:34 -11.2 °C -14.3 °C 1023.2 hPa SSW 17.7 km/h 27.4 km/h 78% 0 mm
00:39 -11.3 °C -14.3 °C 1023.2 hPa SSW 20.9 km/h 29 km/h 78% 0 mm
00:44 -11.3 °C -14.3 °C 1023.2 hPa SSW 11.3 km/h 29 km/h 78% 0 mm
00:49 -11.3 °C -14.4 °C 1023.2 hPa SSE 9.7 km/h 27.4 km/h 78% 0 mm
00:54 -11.4 °C -14.4 °C 1023.2 hPa SW 16.1 km/h 33.8 km/h 78% 0 mm
00:59 -11.4 °C -14.3 °C 1022.9 hPa SW 16.1 km/h 33.8 km/h 79% 0 mm
01:04 -11.4 °C -14.3 °C 1022.9 hPa SSW 14.5 km/h 32.2 km/h 79% 0 mm
01:09 -11.4 °C -14.4 °C 1022.9 hPa SSW 14.5 km/h 29 km/h 78% 0 mm
01:14 -11.4 °C -14.4 °C 1022.9 hPa SSW 12.9 km/h 27.4 km/h 78% 0 mm
01:20 -11.4 °C -14.5 °C 1022.9 hPa SSW 12.9 km/h 33.8 km/h 78% 0 mm
01:29 -11.5 °C -14.6 °C 1022.9 hPa SSW 14.5 km/h 29 km/h 78% 0 mm
01:34 -11.5 °C -14.6 °C 1023.2 hPa SSE 14.5 km/h 27.4 km/h 78% 0 mm
01:39 -11.6 °C -14.6 °C 1023.2 hPa SSW 14.5 km/h 30.6 km/h 78% 0 mm
01:44 -11.6 °C -14.7 °C 1023.2 hPa WSW 16.1 km/h 25.7 km/h 78% 0 mm
01:49 -11.7 °C -14.7 °C 1023.2 hPa SW 14.5 km/h 27.4 km/h 78% 0 mm
01:54 -11.7 °C -14.7 °C 1023.2 hPa SSW 9.7 km/h 20.9 km/h 78% 0 mm
01:59 -11.7 °C -14.8 °C 1023.2 hPa SSW 9.7 km/h 25.7 km/h 78% 0 mm
02:04 -11.7 °C -14.8 °C 1023.2 hPa SSW 12.9 km/h 35.4 km/h 78% 0 mm
02:09 -11.7 °C -14.9 °C 1023.2 hPa SSW 12.9 km/h 35.4 km/h 77% 0 mm
02:14 -11.8 °C -15 °C 1023.2 hPa SSW 12.9 km/h 33.8 km/h 77% 0 mm
02:19 -11.8 °C -15 °C 1023.2 hPa SSW 12.9 km/h 30.6 km/h 77% 0 mm
02:24 -11.8 °C -15.1 °C 1023.6 hPa SSW 12.9 km/h 30.6 km/h 77% 0 mm
02:29 -11.8 °C -15.1 °C 1023.6 hPa SSW 11.3 km/h 24.1 km/h 77% 0 mm
02:34 -11.8 °C -15.1 °C 1023.6 hPa SSW 11.3 km/h 24.1 km/h 77% 0 mm
02:39 -11.9 °C -15.1 °C 1023.6 hPa SSW 9.7 km/h 20.9 km/h 77% 0 mm
02:44 -11.9 °C -15.1 °C 1023.2 hPa South 8 km/h 27.4 km/h 77% 0 mm
02:49 -11.9 °C -15.2 °C 1023.2 hPa SW 8 km/h 20.9 km/h 77% 0 mm
02:54 -11.9 °C -15.3 °C 1023.2 hPa South 9.7 km/h 25.7 km/h 76% 0 mm
02:59 -11.9 °C -15.3 °C 1023.2 hPa SSW 8 km/h 24.1 km/h 76% 0 mm
03:04 -12 °C -15.4 °C 1023.2 hPa South 11.3 km/h 29 km/h 76% 0 mm
03:09 -12.1 °C -15.4 °C 1023.2 hPa SSW 14.5 km/h 29 km/h 76% 0 mm
03:14 -12.1 °C -15.7 °C 1023.2 hPa SSW 14.5 km/h 37 km/h 75% 0 mm
03:19 -12.2 °C -15.6 °C 1023.2 hPa SSW 12.9 km/h 37 km/h 76% 0 mm
03:24 -12.2 °C -15.6 °C 1023.2 hPa SSW 11.3 km/h 22.5 km/h 76% 0 mm
03:29 -12.2 °C -15.6 °C 1023.2 hPa South 4.8 km/h 27.4 km/h 76% 0 mm
03:34 -12.3 °C -15.8 °C 1023.2 hPa SSW 12.9 km/h 27.4 km/h 75% 0 mm
03:39 -12.2 °C -15.6 °C 1023.2 hPa SSE 11.3 km/h 32.2 km/h 76% 0 mm
03:44 -12.3 °C -15.8 °C 1023.2 hPa South 9.7 km/h 29 km/h 75% 0 mm
03:49 -12.3 °C -15.8 °C 1022.9 hPa South 8 km/h 25.7 km/h 75% 0 mm
03:54 -12.3 °C -15.8 °C 1022.9 hPa SW 8 km/h 27.4 km/h 75% 0 mm
03:59 -12.3 °C -15.8 °C 1022.9 hPa SW 11.3 km/h 24.1 km/h 75% 0 mm
04:04 -12.4 °C -15.9 °C 1022.6 hPa SW 12.9 km/h 30.6 km/h 75% 0 mm
04:09 -12.4 °C -15.9 °C 1022.6 hPa SSW 14.5 km/h 27.4 km/h 75% 0 mm
04:14 -12.4 °C -15.9 °C 1022.6 hPa SW 12.9 km/h 29 km/h 75% 0 mm
04:19 -12.4 °C -16.1 °C 1022.6 hPa SSW 14.5 km/h 29 km/h 74% 0 mm
04:24 -12.5 °C -16.2 °C 1022.6 hPa SSW 12.9 km/h 27.4 km/h 74% 0 mm
04:29 -12.5 °C -16.2 °C 1022.6 hPa SSW 12.9 km/h 29 km/h 74% 0 mm
04:34 -12.6 °C -16.2 °C 1022.6 hPa SSW 14.5 km/h 30.6 km/h 74% 0 mm
04:39 -12.6 °C -16.3 °C 1022.6 hPa SSW 12.9 km/h 30.6 km/h 74% 0 mm
04:44 -12.7 °C -16.3 °C 1022.2 hPa SW 11.3 km/h 25.7 km/h 74% 0 mm
04:49 -12.8 °C -16.4 °C 1022.2 hPa SSW 11.3 km/h 25.7 km/h 74% 0 mm
04:54 -12.8 °C -16.5 °C 1022.2 hPa SSW 14.5 km/h 24.1 km/h 74% 0 mm
04:59 -12.8 °C -16.7 °C 1022.2 hPa SSW 12.9 km/h 29 km/h 73% 0 mm
05:04 -12.9 °C -16.6 °C 1022.2 hPa WSW 8 km/h 27.4 km/h 74% 0 mm
05:09 -12.9 °C -16.6 °C 1022.6 hPa SSW 11.3 km/h 27.4 km/h 74% 0 mm
05:19 -12.9 °C -16.7 °C 1022.2 hPa SSW 8 km/h 24.1 km/h 73% 0 mm
05:24 -12.9 °C -16.7 °C 1022.2 hPa SSW 12.9 km/h 27.4 km/h 73% 0 mm
05:29 -12.9 °C -16.8 °C 1022.2 hPa SSW 12.9 km/h 27.4 km/h 73% 0 mm
05:34 -13 °C -16.8 °C 1022.2 hPa SSW 12.9 km/h 29 km/h 73% 0 mm
05:39 -13 °C -16.8 °C 1022.2 hPa SSW 12.9 km/h 29 km/h 73% 0 mm
05:44 -13.1 °C -16.9 °C 1022.2 hPa SSW 12.9 km/h 29 km/h 73% 0 mm
05:49 -13.1 °C -16.9 °C 1022.2 hPa SSW 12.9 km/h 29 km/h 73% 0 mm
05:54 -13.2 °C -17 °C 1022.2 hPa SSW 12.9 km/h 29 km/h 73% 0 mm
06:04 -13.2 °C -17.2 °C 1022.2 hPa South 9.7 km/h 24.1 km/h 72% 0 mm
06:09 -13.3 °C -17.3 °C 1022.2 hPa SSW 11.3 km/h 19.3 km/h 72% 0 mm
06:19 -13.4 °C -17.4 °C 1022.2 hPa South 8 km/h 16.1 km/h 72% 0 mm
06:24 -13.4 °C -17.4 °C 1022.2 hPa South 6.4 km/h 19.3 km/h 72% 0 mm
06:29 -13.5 °C -17.5 °C 1022.2 hPa South 8 km/h 17.7 km/h 72% 0 mm
06:34 -13.5 °C -17.5 °C 1022.2 hPa SSW 9.7 km/h 19.3 km/h 72% 0 mm
06:39 -13.5 °C -17.5 °C 1022.2 hPa South 9.7 km/h 25.7 km/h 72% 0 mm
06:44 -13.6 °C -17.7 °C 1022.2 hPa South 11.3 km/h 25.7 km/h 71% 0 mm
06:49 -13.6 °C -17.7 °C 1022.2 hPa SSW 12.9 km/h 25.7 km/h 71% 0 mm
06:54 -13.6 °C -17.7 °C 1022.2 hPa SSW 11.3 km/h 25.7 km/h 71% 0 mm
06:59 -13.6 °C -17.5 °C 1022.2 hPa SSW 9.7 km/h 19.3 km/h 72% 0 mm
07:04 -13.6 °C -17.5 °C 1022.2 hPa SSW 9.7 km/h 20.9 km/h 72% 0 mm
07:09 -13.6 °C -17.5 °C 1022.2 hPa SSW 9.7 km/h 20.9 km/h 72% 0 mm
07:14 -13.5 °C -17.7 °C 1022.2 hPa SSW 11.3 km/h 20.9 km/h 71% 0 mm
07:19 -13.6 °C -17.7 °C 1022.2 hPa South 6.4 km/h 20.9 km/h 71% 0 mm
07:24 -13.6 °C -17.7 °C 1022.2 hPa SSW 6.4 km/h 20.9 km/h 71% 0 mm
07:34 -13.6 °C -17.7 °C 1022.2 hPa SW 11.3 km/h 16.1 km/h 71% 0 mm
07:44 -13.6 °C -17.7 °C 1022.2 hPa South 9.7 km/h 19.3 km/h 71% 0 mm
07:49 -13.6 °C -17.6 °C 1022.2 hPa South 11.3 km/h 24.1 km/h 72% 0 mm
07:54 -13.6 °C -17.7 °C 1022.2 hPa South 11.3 km/h 24.1 km/h 71% 0 mm
07:59 -13.6 °C -17.5 °C 1022.2 hPa South 11.3 km/h 27.4 km/h 72% 0 mm
08:04 -13.6 °C -17.5 °C 1021.9 hPa South 11.3 km/h 27.4 km/h 72% 0 mm
08:09 -13.6 °C -17.5 °C 1021.9 hPa SSE 16.1 km/h 20.9 km/h 72% 0 mm
08:14 -13.6 °C -17.5 °C 1021.9 hPa South 17.7 km/h 25.7 km/h 72% 0 mm
08:19 -13.4 °C -17.4 °C 1021.9 hPa SSW 9.7 km/h 20.9 km/h 72% 0 mm
08:24 -13.3 °C -17.3 °C 1021.9 hPa SSW 11.3 km/h 29 km/h 72% 0 mm
08:29 -13.2 °C -17.2 °C 1021.9 hPa South 6.4 km/h 27.4 km/h 72% 0 mm
08:34 -13.1 °C -17.1 °C 1021.9 hPa South 14.5 km/h 24.1 km/h 72% 0 mm
08:39 -12.9 °C -16.9 °C 1021.9 hPa SSW 8 km/h 24.1 km/h 72% 0 mm
08:44 -12.8 °C -16.8 °C 1021.9 hPa SSE 22.5 km/h 29 km/h 72% 0 mm
08:54 -12.5 °C -16.5 °C 1021.9 hPa South 11.3 km/h 25.7 km/h 72% 0 mm
08:59 -12.3 °C -16.3 °C 1021.9 hPa SSW 11.3 km/h 25.7 km/h 72% 0 mm
09:04 -11.9 °C -15.9 °C 1021.9 hPa SSW 11.3 km/h 22.5 km/h 72% 0 mm
09:09 -11.5 °C -15.6 °C 1021.6 hPa SSW 11.3 km/h 22.5 km/h 72% 0 mm
09:14 -11.4 °C -15.7 °C 1021.6 hPa SSW 11.3 km/h 27.4 km/h 71% 0 mm
09:19 -11.3 °C -15.6 °C 1021.6 hPa SSW 6.4 km/h 19.3 km/h 71% 0 mm
09:24 -11.3 °C -15.5 °C 1021.6 hPa SW 12.9 km/h 27.4 km/h 71% 0 mm
09:29 -11.1 °C -15.3 °C 1021.6 hPa SSW 11.3 km/h 27.4 km/h 71% 0 mm
09:34 -11 °C -15.4 °C 1021.6 hPa SSW 11.3 km/h 20.9 km/h 70% 0 mm
09:39 -10.9 °C -15.3 °C 1021.6 hPa South 16.1 km/h 25.7 km/h 70% 0 mm
09:44 -10.8 °C -15.4 °C 1021.6 hPa SW 11.3 km/h 22.5 km/h 69% 0 mm
09:49 -10.8 °C -15.4 °C 1021.6 hPa SW 8 km/h 20.9 km/h 69% 0 mm
09:54 -10.8 °C -15.6 °C 1021.6 hPa South 17.7 km/h 29 km/h 68% 0 mm
09:59 -10.8 °C -15.7 °C 1021.6 hPa SSW 4.8 km/h 20.9 km/h 67% 0 mm
10:04 -10.6 °C -15.5 °C 1021.6 hPa SSW 11.3 km/h 27.4 km/h 67% 0 mm
10:09 -10.5 °C -15.4 °C 1021.6 hPa SSW 11.3 km/h 27.4 km/h 67% 0 mm
10:14 -10.5 °C -15.8 °C 1021.2 hPa SSW 11.3 km/h 25.7 km/h 65% 0 mm
10:19 -10.4 °C -15.7 °C 1021.2 hPa SW 8 km/h 27.4 km/h 65% 0 mm
10:24 -10.3 °C -15.6 °C 1021.2 hPa SSW 8 km/h 22.5 km/h 65% 0 mm
10:29 -10.1 °C -15.6 °C 1020.9 hPa SSW 12.9 km/h 25.7 km/h 64% 0 mm
10:34 -10.1 °C -15.9 °C 1020.9 hPa SSW 8 km/h 25.7 km/h 62% 0 mm
10:39 -10.1 °C -15.9 °C 1020.9 hPa SSW 12.9 km/h 25.7 km/h 62% 0 mm
10:44 -9.9 °C -16.1 °C 1020.9 hPa SSW 11.3 km/h 22.5 km/h 61% 0 mm
10:54 -9.6 °C -15.9 °C 1020.9 hPa SSW 6.4 km/h 22.5 km/h 60% 0 mm
11:04 -9.6 °C -16.3 °C 1020.5 hPa SW 17.7 km/h 25.7 km/h 58% 0 mm
11:14 -9.3 °C -16.2 °C 1020.2 hPa SSW 12.9 km/h 25.7 km/h 57% 0 mm
11:19 -9.2 °C -16.1 °C 1020.2 hPa SSW 12.9 km/h 25.7 km/h 57% 0 mm
11:24 -8.8 °C -15.8 °C 1020.2 hPa SSW 12.9 km/h 27.4 km/h 57% 0 mm
11:29 -8.7 °C -15.9 °C 1019.9 hPa SW 17.7 km/h 22.5 km/h 56% 0 mm
11:34 -8.4 °C -15.7 °C 1019.9 hPa SSW 11.3 km/h 24.1 km/h 56% 0 mm
11:39 -8.3 °C -15.7 °C 1019.5 hPa South 8 km/h 20.9 km/h 55% 0 mm
11:44 -8.2 °C -15.7 °C 1019.5 hPa SSW 11.3 km/h 22.5 km/h 55% 0 mm
11:54 -8.2 °C -15.8 °C 1019.5 hPa South 17.7 km/h 25.7 km/h 54% 0 mm
11:59 -8 °C -15.7 °C 1019.2 hPa SSW 16.1 km/h 29 km/h 54% 0 mm
12:04 -7.9 °C -15.9 °C 1019.2 hPa SSW 12.9 km/h 29 km/h 53% 0 mm
12:09 -7.4 °C -15.2 °C 1019.2 hPa SSW 6.4 km/h 25.7 km/h 54% 0 mm
12:14 -7.3 °C -15.5 °C 1018.8 hPa South 19.3 km/h 32.2 km/h 52% 0 mm
12:19 -7.1 °C -15.1 °C 1018.8 hPa SSW 12.9 km/h 32.2 km/h 53% 0 mm
12:24 -6.9 °C -15.2 °C 1018.5 hPa SSW 12.9 km/h 30.6 km/h 52% 0 mm
12:29 -6.8 °C -15.2 °C 1018.5 hPa SSW 12.9 km/h 27.4 km/h 51% 0 mm
12:34 -7 °C -15.4 °C 1018.2 hPa SSW 12.9 km/h 33.8 km/h 51% 0 mm
12:39 -7 °C -15 °C 1018.2 hPa SSW 11.3 km/h 33.8 km/h 53% 0 mm
12:44 -6.9 °C -14.9 °C 1018.2 hPa SSW 9.7 km/h 20.9 km/h 53% 0 mm
12:49 -7.2 °C -15.4 °C 1018.2 hPa South 9.7 km/h 20.9 km/h 52% 0 mm
12:54 -6.9 °C -15.2 °C 1018.2 hPa SSW 9.7 km/h 20.9 km/h 52% 0 mm
12:59 -6.6 °C -15.3 °C 1018.2 hPa SSW 11.3 km/h 22.5 km/h 50% 0 mm
13:09 -6.7 °C -15.2 °C 1017.8 hPa SW 4.8 km/h 20.9 km/h 51% 0 mm
13:14 -6.6 °C -14.6 °C 1017.5 hPa SSE 8 km/h 14.5 km/h 53% 0 mm
13:15 -6.6 °C -14.6 °C 1017.5 hPa SSW 9.7 km/h 20.9 km/h 53% 0 mm
13:29 -6.4 °C -14.7 °C 1017.8 hPa SSW 8 km/h 19.3 km/h 52% 0 mm
13:34 -6.6 °C -15.1 °C 1017.5 hPa SSW 9.7 km/h 22.5 km/h 51% 0 mm
13:39 -6.6 °C -14.8 °C 1017.5 hPa SSW 11.3 km/h 22.5 km/h 52% 0 mm
13:44 -6.6 °C -15.1 °C 1017.5 hPa South 4.8 km/h 17.7 km/h 51% 0 mm
13:49 -6.5 °C -15 °C 1017.5 hPa South 8 km/h 16.1 km/h 51% 0 mm
13:54 -6.4 °C -14.9 °C 1017.2 hPa SW 14.5 km/h 22.5 km/h 51% 0 mm
13:59 -6.4 °C -14.9 °C 1017.2 hPa SSW 11.3 km/h 16.1 km/h 51% 0 mm
14:04 -6.3 °C -14.8 °C 1017.2 hPa SSW 9.7 km/h 17.7 km/h 51% 0 mm
14:09 -6.3 °C -14.8 °C 1017.2 hPa SSW 9.7 km/h 17.7 km/h 51% 0 mm
14:14 -6.2 °C -14.7 °C 1016.8 hPa SSW 9.7 km/h 17.7 km/h 51% 0 mm
14:19 -6.1 °C -14.3 °C 1016.8 hPa SSW 8 km/h 17.7 km/h 52% 0 mm
14:24 -6 °C -14.5 °C 1016.8 hPa SSW 8 km/h 17.7 km/h 51% 0 mm
14:29 -5.9 °C -14.4 °C 1016.8 hPa SSW 8 km/h 17.7 km/h 51% 0 mm
14:34 -5.8 °C -14.1 °C 1016.8 hPa SSW 11.3 km/h 16.1 km/h 52% 0 mm
14:39 -5.7 °C -14.2 °C 1016.5 hPa SSW 9.7 km/h 25.7 km/h 51% 0 mm
14:44 -5.6 °C -14.4 °C 1016.5 hPa SW 12.9 km/h 25.7 km/h 50% 0 mm
14:49 -5.6 °C -14.1 °C 1016.8 hPa West 14.5 km/h 25.7 km/h 51% 0 mm
14:54 -5.6 °C -14.4 °C 1016.5 hPa SW 14.5 km/h 30.6 km/h 50% 0 mm
14:59 -5.6 °C -13.9 °C 1016.5 hPa SW 24.1 km/h 27.4 km/h 52% 0 mm
15:04 -5.6 °C -13.9 °C 1016.5 hPa WSW 12.9 km/h 27.4 km/h 52% 0 mm
15:09 -5.6 °C -13.9 °C 1016.5 hPa WSW 16.1 km/h 27.4 km/h 52% 0 mm
15:15 -5.6 °C -13.7 °C 1016.5 hPa WSW 8 km/h 22.5 km/h 53% 0 mm
15:24 -5.7 °C -13.3 °C 1016.1 hPa WSW 12.9 km/h 30.6 km/h 55% 0 mm
15:29 -5.7 °C -13.6 °C 1016.1 hPa SW 11.3 km/h 20.9 km/h 54% 0 mm
15:34 -5.7 °C -13.3 °C 1016.5 hPa SW 11.3 km/h 20.9 km/h 55% 0 mm
15:39 -5.7 °C -13.3 °C 1016.1 hPa WSW 19.3 km/h 24.1 km/h 55% 0 mm
15:44 -5.7 °C -13.3 °C 1016.5 hPa SW 8 km/h 29 km/h 55% 0 mm
15:49 -5.7 °C -13.5 °C 1016.5 hPa WSW 14.5 km/h 29 km/h 54% 0 mm
15:54 -5.7 °C -13.5 °C 1016.5 hPa WSW 14.5 km/h 29 km/h 54% 0 mm
15:59 -5.7 °C -13.3 °C 1016.1 hPa SW 14.5 km/h 24.1 km/h 55% 0 mm
16:09 -5.8 °C -13.2 °C 1016.1 hPa SSW 11.3 km/h 25.7 km/h 56% 0 mm
16:14 -5.8 °C -13.2 °C 1016.1 hPa SSW 14.5 km/h 32.2 km/h 56% 0 mm
16:19 -5.8 °C -13.2 °C 1016.1 hPa SW 12.9 km/h 24.1 km/h 56% 0 mm
16:24 -5.8 °C -13.2 °C 1016.1 hPa SW 12.9 km/h 24.1 km/h 56% 0 mm
16:29 -5.8 °C -13 °C 1016.1 hPa South 16.1 km/h 25.7 km/h 57% 0 mm
16:34 -5.8 °C -12.8 °C 1016.5 hPa SW 12.9 km/h 25.7 km/h 58% 0 mm
16:39 -5.8 °C -12.8 °C 1016.5 hPa SW 19.3 km/h 27.4 km/h 58% 0 mm
16:44 -5.8 °C -12.6 °C 1016.5 hPa SW 8 km/h 24.1 km/h 59% 0 mm
16:49 -5.9 °C -12.4 °C 1016.5 hPa SW 8 km/h 16.1 km/h 60% 0 mm
16:54 -5.9 °C -12.3 °C 1016.5 hPa SW 8 km/h 16.1 km/h 61% 0 mm
16:59 -5.9 °C -12.3 °C 1016.5 hPa SW 8 km/h 20.9 km/h 61% 0 mm
17:04 -6 °C -12.3 °C 1016.5 hPa SW 8 km/h 27.4 km/h 61% 0 mm
17:14 -5.9 °C -12.3 °C 1016.5 hPa SW 12.9 km/h 24.1 km/h 61% 0 mm
17:19 -5.9 °C -12.1 °C 1016.5 hPa SSW 11.3 km/h 27.4 km/h 62% 0 mm
17:24 -5.9 °C -12.1 °C 1016.5 hPa South 12.9 km/h 22.5 km/h 62% 0 mm
17:29 -5.9 °C -12 °C 1016.8 hPa SSW 9.7 km/h 19.3 km/h 62% 0 mm
17:34 -5.8 °C -11.9 °C 1016.8 hPa SW 11.3 km/h 27.4 km/h 62% 0 mm
17:39 -5.7 °C -11.8 °C 1016.8 hPa SW 11.3 km/h 27.4 km/h 62% 0 mm
17:44 -5.7 °C -12 °C 1016.8 hPa SW 11.3 km/h 25.7 km/h 61% 0 mm
17:49 -5.6 °C -12.2 °C 1016.8 hPa SSW 9.7 km/h 22.5 km/h 60% 0 mm
17:54 -5.6 °C -12.1 °C 1016.8 hPa SSW 9.7 km/h 22.5 km/h 60% 0 mm
17:59 -5.6 °C -12.3 °C 1017.2 hPa SSW 9.7 km/h 20.9 km/h 59% 0 mm
18:04 -5.6 °C -12.3 °C 1017.2 hPa South 11.3 km/h 22.5 km/h 59% 0 mm
18:09 -5.6 °C -12.5 °C 1017.2 hPa SSW 11.3 km/h 22.5 km/h 58% 0 mm
18:14 -5.5 °C -12.3 °C 1017.2 hPa SW 17.7 km/h 25.7 km/h 59% 0 mm
18:19 -5.4 °C -12 °C 1017.2 hPa WSW 3.2 km/h 20.9 km/h 60% 0 mm
18:24 -5.4 °C -12 °C 1017.2 hPa SW 6.4 km/h 16.1 km/h 60% 0 mm
18:29 -5.3 °C -11.7 °C 1017.2 hPa SW 6.4 km/h 17.7 km/h 61% 0 mm
18:34 -5.3 °C -11.6 °C 1017.2 hPa SW 8 km/h 22.5 km/h 61% 0 mm
18:39 -5.3 °C -11.8 °C 1017.2 hPa SW 16.1 km/h 32.2 km/h 60% 0 mm
18:44 -5.2 °C -12 °C 1017.2 hPa SW 14.5 km/h 35.4 km/h 59% 0 mm
18:49 -5.2 °C -12 °C 1017.2 hPa SW 14.5 km/h 35.4 km/h 59% 0 mm
18:54 -5.3 °C -12.1 °C 1017.2 hPa SW 12.9 km/h 30.6 km/h 59% 0 mm
18:59 -5.3 °C -11.8 °C 1017.2 hPa SW 14.5 km/h 33.8 km/h 60% 0 mm
19:04 -5.3 °C -11.8 °C 1017.2 hPa SW 16.1 km/h 33.8 km/h 60% 0 mm
19:09 -5.3 °C -11.9 °C 1017.2 hPa WSW 14.5 km/h 33.8 km/h 60% 0 mm
19:14 -5.4 °C -11.9 °C 1016.8 hPa West 11.3 km/h 17.7 km/h 60% 0 mm
19:24 -5.4 °C -11.7 °C 1016.8 hPa WSW 16.1 km/h 27.4 km/h 61% 0 mm
19:29 -5.4 °C -11.9 °C 1016.8 hPa WSW 8 km/h 20.9 km/h 60% 0 mm
19:34 -5.3 °C -11.9 °C 1016.8 hPa West 16.1 km/h 29 km/h 60% 0 mm
19:39 -5.3 °C -11.9 °C 1016.8 hPa SW 24.1 km/h 25.7 km/h 60% 0 mm
19:44 -5.3 °C -11.9 °C 1016.8 hPa SW 12.9 km/h 35.4 km/h 60% 0 mm
19:49 -5.3 °C -11.9 °C 1016.8 hPa SW 14.5 km/h 35.4 km/h 60% 0 mm
19:54 -5.4 °C -11.7 °C 1016.8 hPa SW 11.3 km/h 30.6 km/h 61% 0 mm
19:59 -5.4 °C -11.8 °C 1016.8 hPa SW 11.3 km/h 27.4 km/h 61% 0 mm
20:04 -5.4 °C -11.8 °C 1016.5 hPa SW 14.5 km/h 27.4 km/h 61% 0 mm
20:09 -5.4 °C -11.8 °C 1016.5 hPa SW 14.5 km/h 29 km/h 61% 0 mm
20:14 -5.4 °C -11.6 °C 1016.5 hPa West 14.5 km/h 25.7 km/h 62% 0 mm
20:19 -5.5 °C -11.4 °C 1016.5 hPa WSW 11.3 km/h 25.7 km/h 63% 0 mm
20:24 -5.6 °C -11.5 °C 1016.5 hPa WSW 12.9 km/h 20.9 km/h 63% 0 mm
20:29 -5.6 °C -11.3 °C 1016.1 hPa WSW 16.1 km/h 30.6 km/h 64% 0 mm
20:34 -5.6 °C -11.3 °C 1016.1 hPa WSW 16.1 km/h 25.7 km/h 64% 0 mm
20:39 -5.6 °C -11.2 °C 1016.1 hPa WSW 16.1 km/h 25.7 km/h 65% 0 mm
20:44 -5.7 °C -11 °C 1016.1 hPa SW 11.3 km/h 27.4 km/h 66% 0 mm
20:49 -5.7 °C -10.9 °C 1016.1 hPa SW 12.9 km/h 27.4 km/h 67% 0 mm
20:54 -5.8 °C -10.7 °C 1016.1 hPa SW 12.9 km/h 30.6 km/h 68% 0 mm
20:59 -5.8 °C -10.6 °C 1016.1 hPa WNW 11.3 km/h 22.5 km/h 69% 0 mm
21:04 -5.8 °C -10.4 °C 1016.1 hPa SW 12.9 km/h 25.7 km/h 70% 0 mm
21:09 -5.8 °C -10.3 °C 1016.1 hPa SW 14.5 km/h 25.7 km/h 71% 0 mm
21:14 -5.9 °C -10.1 °C 1016.1 hPa SW 12.9 km/h 29 km/h 72% 0 mm
21:19 -5.9 °C -10 °C 1016.1 hPa WSW 12.9 km/h 29 km/h 73% 0 mm
21:24 -6 °C -9.7 °C 1016.5 hPa SW 12.9 km/h 29 km/h 75% 0 mm
21:29 -6.1 °C -9.6 °C 1016.1 hPa WSW 17.7 km/h 24.1 km/h 76% 0 mm
21:34 -6.1 °C -9.4 °C 1016.1 hPa WSW 9.7 km/h 19.3 km/h 77% 0 mm
21:39 -6.1 °C -9.3 °C 1016.1 hPa SW 8 km/h 19.3 km/h 78% 0 mm
21:44 -6.2 °C -9.2 °C 1016.1 hPa SW 9.7 km/h 19.3 km/h 79% 0 mm
21:49 -6.2 °C -9.1 °C 1016.1 hPa South 1.6 km/h 17.7 km/h 80% 0 mm
21:54 -6.2 °C -9.1 °C 1016.1 hPa SW 11.3 km/h 17.7 km/h 80% 0 mm
21:59 -6.2 °C -9.1 °C 1016.1 hPa SSE 11.3 km/h 20.9 km/h 80% 0 mm
22:04 -6.3 °C -9.1 °C 1016.1 hPa SSW 12.9 km/h 16.1 km/h 81% 0 mm
22:09 -6.3 °C -9.1 °C 1016.1 hPa SSW 8 km/h 16.1 km/h 81% 0 mm
22:14 -6.4 °C -9.1 °C 1016.1 hPa SSW 8 km/h 16.1 km/h 81% 0 mm
22:19 -6.4 °C -9.2 °C 1015.8 hPa SSW 9.7 km/h 16.1 km/h 81% 0 mm
22:24 -6.5 °C -9.2 °C 1015.8 hPa SSW 9.7 km/h 17.7 km/h 81% 0 mm
22:29 -6.6 °C -9.3 °C 1015.8 hPa SSW 8 km/h 20.9 km/h 81% 0 mm
22:34 -6.6 °C -9.3 °C 1015.8 hPa SSW 8 km/h 20.9 km/h 81% 0 mm
22:39 -6.7 °C -9.4 °C 1015.8 hPa SSW 12.9 km/h 22.5 km/h 81% 0 mm
22:44 -6.7 °C -9.4 °C 1015.8 hPa SSW 9.7 km/h 22.5 km/h 81% 0 mm
22:49 -6.8 °C -9.5 °C 1015.8 hPa South 6.4 km/h 12.9 km/h 81% 0 mm
22:54 -6.8 °C -9.7 °C 1015.8 hPa SW 9.7 km/h 20.9 km/h 80% 0 mm
22:55 -6.8 °C -9.7 °C 1015.8 hPa South 8 km/h 20.9 km/h 80% 0 mm
23:04 -6.8 °C -9.7 °C 1016.1 hPa SSW 9.7 km/h 19.3 km/h 80% 0 mm
23:14 -6.9 °C -9.8 °C 1016.1 hPa WSW 6.4 km/h 14.5 km/h 80% 0 mm
23:19 -6.9 °C -9.8 °C 1016.1 hPa WSW 6.4 km/h 14.5 km/h 80% 0 mm
23:24 -6.9 °C -9.7 °C 1016.1 hPa WSW 6.4 km/h 11.3 km/h 81% 0 mm
23:29 -7 °C -9.6 °C 1016.1 hPa WSW 4.8 km/h 11.3 km/h 82% 0 mm
23:34 -6.9 °C -9.5 °C 1016.1 hPa WSW 3.2 km/h 12.9 km/h 82% 0 mm
23:39 -7.1 °C -9.4 °C 1016.1 hPa WSW 4.8 km/h 12.9 km/h 83% 0 mm
23:44 -7.2 °C -9.6 °C 1016.1 hPa WSW 6.4 km/h 6.4 km/h 83% 0 mm
23:49 -7.2 °C -9.6 °C 1016.1 hPa WSW 3.2 km/h 6.4 km/h 83% 0 mm
23:54 -7.3 °C -9.7 °C 1016.1 hPa WSW 3.2 km/h 9.7 km/h 83% 0 mm
23:59 -7.3 °C -9.5 °C 1016.1 hPa West 4.8 km/h 9.7 km/h 84% 0 mm
Buffalo, New York, USA
Compliments of Weather Underground - 2.25 mb